| time (UTC) | temp F | wind direction | speed MPH | gust MPH | rain 1hr in | rain 24hr in | rain mn in | humidity % | barometer mb |
| 20260507093508 | 47 | 13 | 2.0 | 2.0 | 0.00 | 0.00 | 0.00 | 54 | 1011.7 |
| 20260507093007 | 47 | 22 | 7.0 | 8.0 | 0.00 | 0.00 | 0.00 | 52 | 1011.5 |
| 20260507092503 | 47 | 19 | 4.0 | 5.0 | 0.00 | 0.00 | 0.00 | 51 | 1011.3 |
| 20260507092000 | 46 | 16 | 3.0 | 3.0 | 0.00 | 0.00 | 0.00 | 54 | 1010.9 |
| 20260507091456 | 46 | 24 | 4.0 | 5.0 | 0.00 | 0.00 | 0.00 | 56 | 1010.9 |
| 20260507090952 | 46 | 14 | 5.0 | 6.0 | 0.00 | 0.00 | 0.00 | 56 | 1010.9 |
| 20260507090448 | 46 | 29 | 3.0 | 3.0 | 0.00 | 0.00 | 0.00 | 55 | 1010.7 |
| 20260507085945 | 46 | 29 | 3.0 | 3.0 | 0.00 | 0.00 | 0.00 | 54 | 1010.8 |
| 20260507085442 | 46 | 8 | 3.0 | 3.0 | 0.00 | 0.00 | 0.00 | 57 | 1010.8 |
| 20260507084939 | 47 | 15 | 5.0 | 6.0 | 0.00 | 0.00 | 0.00 | 54 | 1010.8 |
| 20260507084436 | 47 | 56 | 0.0 | 0.0 | 0.00 | 0.00 | 0.00 | 54 | 1010.6 |
| 20260507083933 | 48 | 56 | 2.0 | 2.0 | 0.00 | 0.00 | 0.00 | 54 | 1010.6 |
| 20260507083429 | 49 | 49 | 2.0 | 2.0 | 0.00 | 0.00 | 0.00 | 52 | 1010.7 |
| 20260507082925 | 50 | 44 | 2.0 | 2.0 | 0.00 | 0.00 | 0.00 | 49 | 1010.6 |
| 20260507082421 | 51 | 43 | 2.0 | 2.0 | 0.00 | 0.00 | 0.00 | 47 | 1010.8 |
| 20260507081918 | 51 | 42 | 2.0 | 2.0 | 0.00 | 0.00 | 0.00 | 47 | 1010.6 |
| 20260507081414 | 50 | 12 | 4.0 | 5.0 | 0.00 | 0.00 | 0.00 | 48 | 1010.5 |
| 20260507080911 | 50 | 95 | 3.0 | 3.0 | 0.00 | 0.00 | 0.00 | 50 | 1010.3 |
| 20260507080408 | 51 | 115 | 6.0 | 7.0 | 0.00 | 0.00 | 0.00 | 48 | 1010.0 |
| 20260507075903 | 51 | 29 | 5.0 | 6.0 | 0.00 | 0.00 | 0.00 | 46 | 1010.4 |
| 20260507075359 | 52 | 1 | 5.0 | 6.0 | 0.00 | 0.00 | 0.00 | 47 | 1010.4 |
| 20260507074856 | 54 | 118 | 5.0 | 7.0 | 0.00 | 0.00 | 0.00 | 44 | 1009.8 |
| 20260507074353 | 53 | 128 | 8.0 | 10.0 | 0.00 | 0.00 | 0.00 | 44 | 1009.9 |
| 20260507073850 | 53 | 8 | 5.0 | 6.0 | 0.00 | 0.00 | 0.00 | 47 | 1010.3 |
| 20260507073347 | 53 | 96 | 5.0 | 6.0 | 0.00 | 0.00 | 0.00 | 45 | 1009.8 |
| 20260507072844 | 53 | 108 | 6.0 | 9.0 | 0.00 | 0.00 | 0.00 | 45 | 1010.0 |
| 20260507072341 | 54 | 159 | 9.0 | 10.0 | 0.00 | 0.00 | 0.00 | 43 | 1010.0 |
| 20260507071839 | 54 | 104 | 9.0 | 10.0 | 0.00 | 0.00 | 0.00 | 41 | 1009.9 |
| 20260507071336 | 54 | 66 | 6.0 | 8.0 | 0.00 | 0.00 | 0.00 | 42 | 1010.0 |
| 20260507070832 | 55 | 56 | 7.0 | 7.0 | 0.00 | 0.00 | 0.00 | 40 | 1009.9 |
| 20260507070329 | 55 | 36 | 5.0 | 6.0 | 0.00 | 0.00 | 0.00 | 41 | 1009.8 |
| 20260507065826 | 56 | 47 | 5.0 | 7.0 | 0.00 | 0.00 | 0.00 | 39 | 1009.6 |
| 20260507065323 | 56 | 66 | 9.0 | 11.0 | 0.00 | 0.00 | 0.00 | 36 | 1009.5 |
| 20260507064820 | 55 | 47 | 3.0 | 3.0 | 0.00 | 0.00 | 0.00 | 40 | 1009.7 |
| 20260507064318 | 56 | 25 | 5.0 | 6.0 | 0.00 | 0.00 | 0.00 | 40 | 1009.8 |
| 20260507063816 | 57 | 59 | 22.0 | 26.0 | 0.00 | 0.00 | 0.00 | 36 | 1009.3 |
| 20260507063313 | 56 | 26 | 15.0 | 18.0 | 0.00 | 0.00 | 0.00 | 38 | 1009.8 |
| 20260507062809 | 56 | 31 | 12.0 | 15.0 | 0.00 | 0.00 | 0.00 | 38 | 1009.9 |
| 20260507062306 | 57 | 26 | 6.0 | 8.0 | 0.00 | 0.00 | 0.00 | 41 | 1009.7 |
| 20260507061805 | 57 | 51 | 8.0 | 9.0 | 0.00 | 0.00 | 0.00 | 41 | 1009.7 |
| 20260507061302 | 58 | 35 | 6.0 | 7.0 | 0.00 | 0.00 | 0.00 | 46 | 1009.4 |
| 20260507060800 | 58 | 46 | 4.0 | 5.0 | 0.00 | 0.00 | 0.00 | 44 | 1009.0 |
| 20260507060256 | 58 | 23 | 6.0 | 7.0 | 0.00 | 0.00 | 0.00 | 44 | 1008.8 |
| 20260507055753 | 57 | 38 | 7.0 | 7.0 | 0.00 | 0.00 | 0.00 | 49 | 1008.8 |
| 20260507055248 | 57 | 290 | 3.0 | 3.0 | 0.00 | 0.00 | 0.00 | 48 | 1008.5 |
| 20260507054745 | 58 | 288 | 1.0 | 1.0 | 0.00 | 0.00 | 0.00 | 46 | 1008.4 |
| 20260507054242 | 57 | 288 | 2.0 | 3.0 | 0.00 | 0.00 | 0.00 | 45 | 1008.5 |
| 20260507053739 | 55 | 250 | 0.0 | 0.0 | 0.00 | 0.00 | 0.00 | 48 | 1008.3 |
| 20260507053236 | 56 | 250 | 0.0 | 0.0 | 0.00 | 0.00 | 0.00 | 46 | 1008.3 |
| 20260507052735 | 56 | 250 | 0.0 | 0.0 | 0.00 | 0.00 | 0.00 | 45 | 1008.2 |
| 20260507052231 | 56 | 251 | 0.0 | 0.0 | 0.00 | 0.00 | 0.00 | 45 | 1008.3 |
| 20260507051730 | 56 | 251 | 0.0 | 0.0 | 0.00 | 0.00 | 0.00 | 44 | 1008.1 |
| 20260507051226 | 56 | 250 | 0.0 | 0.0 | 0.00 | 0.00 | 0.00 | 42 | 1008.4 |
| 20260507050722 | 57 | 250 | 0.0 | 0.0 | 0.00 | 0.00 | 0.00 | 41 | 1008.3 |
| 20260507050220 | 57 | 251 | 0.0 | 0.0 | 0.00 | 0.00 | 0.00 | 39 | 1008.4 |
| 20260507045716 | 58 | 250 | 0.0 | 0.0 | 0.00 | 0.00 | 0.00 | 39 | 1008.2 |
| 20260507045212 | 58 | 223 | 0.0 | 0.0 | 0.00 | 0.00 | 0.00 | 38 | 1008.5 |
| 20260507044710 | 59 | 210 | 0.0 | 0.0 | 0.00 | 0.00 | 0.00 | 37 | 1008.2 |
| 20260507044206 | 60 | 209 | 0.0 | 0.0 | 0.00 | 0.00 | 0.00 | 37 | 1008.3 |
| 20260507043703 | 60 | 178 | 0.0 | 0.0 | 0.00 | 0.00 | 0.00 | 38 | 1008.4 |
| 20260507043200 | 61 | 173 | 1.0 | 1.0 | 0.00 | 0.00 | 0.00 | 37 | 1008.1 |
| 20260507042656 | 60 | 156 | 0.0 | 0.0 | 0.00 | 0.00 | 0.00 | 37 | 1008.3 |
| 20260507042151 | 60 | 141 | 0.0 | 0.0 | 0.00 | 0.00 | 0.00 | 37 | 1008.3 |
| 20260507041648 | 61 | 140 | 0.0 | 0.0 | 0.00 | 0.00 | 0.00 | 38 | 1008.4 |
| 20260507041144 | 62 | 132 | 0.0 | 0.0 | 0.00 | 0.00 | 0.00 | 36 | 1008.5 |
| 20260507040642 | 63 | 104 | 0.0 | 0.0 | 0.00 | 0.00 | 0.00 | 36 | 1008.5 |
| 20260507040138 | 63 | 96 | 0.0 | 0.0 | 0.00 | 0.00 | 0.00 | 34 | 1008.5 |
| 20260507035634 | 64 | 100 | 1.0 | 1.0 | 0.00 | 0.00 | 0.00 | 33 | 1008.5 |
| 20260507035130 | 65 | 63 | 2.0 | 2.0 | 0.00 | 0.00 | 0.00 | 31 | 1008.5 |
| 20260507034627 | 66 | 244 | 0.0 | 1.0 | 0.00 | 0.00 | 0.00 | 29 | 1008.6 |
| 20260507034125 | 66 | 258 | 1.0 | 1.0 | 0.00 | 0.00 | 0.00 | 30 | 1008.3 |
| 20260507033623 | 65 | 256 | 0.0 | 0.0 | 0.00 | 0.00 | 0.00 | 31 | 1008.6 |
| 20260507033120 | 66 | 327 | 0.0 | 0.0 | 0.00 | 0.00 | 0.00 | 32 | 1008.6 |
| 20260507032617 | 66 | 55 | 5.0 | 7.0 | 0.00 | 0.00 | 0.00 | 30 | 1008.5 |
| 20260507032113 | 66 | 340 | 3.0 | 6.0 | 0.00 | 0.00 | 0.00 | 32 | 1008.4 |
| 20260507031610 | 66 | 336 | 3.0 | 3.0 | 0.00 | 0.00 | 0.00 | 34 | 1008.5 |
| 20260507031107 | 67 | 333 | 1.0 | 1.0 | 0.00 | 0.00 | 0.00 | 33 | 1008.4 |
| 20260507030603 | 67 | 335 | 2.0 | 3.0 | 0.00 | 0.00 | 0.00 | 32 | 1008.2 |
| 20260507030101 | 67 | 328 | 4.0 | 7.0 | 0.00 | 0.00 | 0.00 | 33 | 1008.3 |
| 20260507025558 | 66 | 333 | 1.0 | 2.0 | 0.00 | 0.00 | 0.00 | 34 | 1008.4 |
| 20260507025055 | 64 | 262 | 0.0 | 1.0 | 0.00 | 0.00 | 0.00 | 29 | 1008.1 |
| 20260507024553 | 63 | 267 | 0.0 | 0.0 | 0.00 | 0.00 | 0.00 | 30 | 1008.3 |
| 20260507024050 | 62 | 268 | 0.0 | 0.0 | 0.00 | 0.00 | 0.00 | 30 | 1008.3 |
| 20260507023545 | 62 | 271 | 0.0 | 1.0 | 0.00 | 0.00 | 0.00 | 32 | 1008.3 |
| 20260507023043 | 64 | 274 | 0.0 | 0.0 | 0.00 | 0.00 | 0.00 | 35 | 1008.3 |
| 20260507022540 | 65 | 275 | 0.0 | 0.0 | 0.00 | 0.00 | 0.00 | 33 | 1008.2 |
| 20260507022035 | 65 | 284 | 1.0 | 1.0 | 0.00 | 0.00 | 0.00 | 30 | 1008.2 |
| 20260507021531 | 66 | 10 | 0.0 | 0.0 | 0.00 | 0.00 | 0.00 | 28 | 1008.1 |
| 20260507021028 | 66 | 10 | 0.0 | 0.0 | 0.00 | 0.00 | 0.00 | 29 | 1008.2 |
| 20260507020526 | 66 | 10 | 0.0 | 0.0 | 0.00 | 0.00 | 0.00 | 28 | 1008.1 |
| 20260507020022 | 67 | 10 | 0.0 | 0.0 | 0.00 | 0.00 | 0.00 | 27 | 1007.7 |
| 20260507015520 | 67 | 16 | 0.0 | 0.0 | 0.00 | 0.00 | 0.00 | 26 | 1008.0 |
| 20260507015018 | 68 | 17 | 1.0 | 2.0 | 0.00 | 0.00 | 0.00 | 25 | 1008.0 |
| 20260507014514 | 68 | 25 | 1.0 | 2.0 | 0.00 | 0.00 | 0.00 | 25 | 1007.9 |
| 20260507014010 | 69 | 20 | 2.0 | 2.0 | 0.00 | 0.00 | 0.00 | 25 | 1007.9 |
| 20260507013506 | 68 | 21 | 2.0 | 2.0 | 0.00 | 0.00 | 0.00 | 24 | 1008.0 |
| 20260507013004 | 69 | 16 | 2.0 | 2.0 | 0.00 | 0.00 | 0.00 | 24 | 1007.9 |
| 20260507012501 | 69 | 359 | 2.0 | 2.0 | 0.00 | 0.00 | 0.00 | 23 | 1007.9 |
| 20260507011957 | 70 | 8 | 5.0 | 8.0 | 0.00 | 0.00 | 0.00 | 22 | 1008.1 |
| 20260507011454 | 70 | 10 | 5.0 | 7.0 | 0.00 | 0.00 | 0.00 | 21 | 1008.1 |
| 20260507010950 | 70 | 359 | 3.0 | 3.0 | 0.00 | 0.00 | 0.00 | 22 | 1008.0 |
| 20260507010445 | 70 | 7 | 5.0 | 6.0 | 0.00 | 0.00 | 0.00 | 21 | 1008.2 |
| 20260507005942 | 70 | 353 | 3.0 | 5.0 | 0.00 | 0.00 | 0.00 | 21 | 1008.1 |
| 20260507005439 | 71 | 276 | 2.0 | 2.0 | 0.00 | 0.00 | 0.00 | 22 | 1008.2 |
| 20260507004935 | 71 | 273 | 1.0 | 2.0 | 0.00 | 0.00 | 0.00 | 21 | 1008.2 |
| 20260507004432 | 71 | 198 | 0.0 | 0.0 | 0.00 | 0.00 | 0.00 | 21 | 1008.2 |
| 20260507003930 | 72 | 177 | 1.0 | 2.0 | 0.00 | 0.00 | 0.00 | 20 | 1008.3 |
| 20260507003425 | 72 | 155 | 2.0 | 2.0 | 0.00 | 0.00 | 0.00 | 21 | 1008.3 |
| 20260507002920 | 72 | 178 | 4.0 | 5.0 | 0.00 | 0.00 | 0.00 | 21 | 1008.1 |
| 20260507002416 | 72 | 166 | 3.0 | 3.0 | 0.00 | 0.00 | 0.00 | 21 | 1008.3 |
| 20260507001914 | 72 | 137 | 4.0 | 5.0 | 0.00 | 0.00 | 0.00 | 20 | 1008.2 |
| 20260507001410 | 72 | 113 | 3.0 | 5.0 | 0.00 | 0.00 | 0.00 | 21 | 1008.2 |
| 20260507000908 | 73 | 120 | 1.0 | 2.0 | 0.00 | 0.00 | 0.00 | 20 | 1008.4 |
| 20260507000405 | 73 | 137 | 2.0 | 3.0 | 0.00 | 0.00 | 0.00 | 21 | 1008.3 |
| 20260506235859 | 72 | 90 | 3.0 | 3.0 | 0.00 | 0.00 | 0.00 | 21 | 1008.4 |
| 20260506235357 | 71 | 75 | 2.0 | 3.0 | 0.00 | 0.00 | 0.00 | 22 | 1008.3 |
| 20260506234852 | 72 | 64 | 2.0 | 2.0 | 0.00 | 0.00 | 0.00 | 21 | 1008.3 |
| 20260506234350 | 72 | 57 | 3.0 | 6.0 | 0.00 | 0.00 | 0.00 | 21 | 1008.3 |
| 20260506233847 | 72 | 59 | 6.0 | 8.0 | 0.00 | 0.00 | 0.00 | 20 | 1008.3 |
| 20260506233343 | 72 | 26 | 7.0 | 7.0 | 0.00 | 0.00 | 0.00 | 21 | 1008.4 |
| 20260506232841 | 72 | 58 | 10.0 | 13.0 | 0.00 | 0.00 | 0.00 | 20 | 1008.3 |
| 20260506232336 | 72 | 65 | 8.0 | 9.0 | 0.00 | 0.00 | 0.00 | 20 | 1008.5 |
| 20260506231832 | 72 | 82 | 3.0 | 6.0 | 0.00 | 0.00 | 0.00 | 21 | 1008.4 |
| 20260506231331 | 72 | 59 | 6.0 | 7.0 | 0.00 | 0.00 | 0.00 | 20 | 1008.4 |
| 20260506230828 | 71 | 62 | 6.0 | 7.0 | 0.00 | 0.00 | 0.00 | 20 | 1008.6 |
| 20260506230324 | 72 | 76 | 1.0 | 2.0 | 0.00 | 0.00 | 0.00 | 20 | 1008.6 |
| 20260506225820 | 71 | 52 | 5.0 | 8.0 | 0.00 | 0.00 | 0.00 | 21 | 1008.6 |
| 20260506225318 | 71 | 100 | 5.0 | 7.0 | 0.00 | 0.00 | 0.00 | 21 | 1008.8 |
| 20260506224815 | 71 | 139 | 3.0 | 5.0 | 0.00 | 0.00 | 0.00 | 20 | 1008.8 |
| 20260506224312 | 71 | 132 | 5.0 | 7.0 | 0.00 | 0.00 | 0.00 | 20 | 1008.8 |
| 20260506223808 | 72 | 106 | 8.0 | 10.0 | 0.00 | 0.00 | 0.00 | 20 | 1009.0 |
| 20260506223303 | 71 | 67 | 5.0 | 7.0 | 0.00 | 0.00 | 0.00 | 20 | 1009.0 |
| 20260506222800 | 71 | 58 | 3.0 | 5.0 | 0.00 | 0.00 | 0.00 | 21 | 1009.2 |
| 20260506222255 | 71 | 104 | 6.0 | 8.0 | 0.00 | 0.00 | 0.00 | 20 | 1009.2 |
| 20260506221749 | 71 | 206 | 2.0 | 3.0 | 0.00 | 0.00 | 0.00 | 20 | 1009.4 |
| 20260506221246 | 71 | 77 | 5.0 | 6.0 | 0.00 | 0.00 | 0.00 | 20 | 1009.4 |
| 20260506220744 | 72 | 286 | 1.0 | 1.0 | 0.00 | 0.00 | 0.00 | 19 | 1009.6 |
| 20260506220238 | 71 | 149 | 3.0 | 3.0 | 0.00 | 0.00 | 0.00 | 20 | 1009.8 |
| 20260506215735 | 71 | 27 | 3.0 | 3.0 | 0.00 | 0.00 | 0.00 | 20 | 1009.8 |
| 20260506215231 | 70 | 12 | 6.0 | 8.0 | 0.00 | 0.00 | 0.00 | 20 | 1009.8 |
| 20260506214727 | 71 | 14 | 3.0 | 3.0 | 0.00 | 0.00 | 0.00 | 21 | 1009.9 |
| 20260506214225 | 71 | 253 | 2.0 | 3.0 | 0.00 | 0.00 | 0.00 | 20 | 1009.9 |
| 20260506213723 | 70 | 288 | 3.0 | 5.0 | 0.00 | 0.00 | 0.00 | 20 | 1010.2 |
| 20260506213220 | 70 | 352 | 4.0 | 5.0 | 0.00 | 0.00 | 0.00 | 20 | 1010.4 |
| 20260506212717 | 70 | 16 | 3.0 | 3.0 | 0.00 | 0.00 | 0.00 | 20 | 1010.3 |
| 20260506212212 | 71 | 347 | 6.0 | 7.0 | 0.00 | 0.00 | 0.00 | 20 | 1010.5 |
| 20260506211708 | 71 | 297 | 5.0 | 5.0 | 0.00 | 0.00 | 0.00 | 20 | 1010.5 |
| 20260506211204 | 72 | 249 | 3.0 | 3.0 | 0.00 | 0.00 | 0.00 | 20 | 1010.7 |
| 20260506210701 | 69 | 315 | 2.0 | 3.0 | 0.00 | 0.00 | 0.00 | 22 | 1010.7 |
| 20260506210158 | 69 | 0 | 3.0 | 3.0 | 0.00 | 0.00 | 0.00 | 21 | 1010.7 |
| 20260506205655 | 69 | 251 | 1.0 | 1.0 | 0.00 | 0.00 | 0.00 | 21 | 1010.9 |
| 20260506205150 | 69 | 309 | 4.0 | 6.0 | 0.00 | 0.00 | 0.00 | 21 | 1010.9 |
| 20260506204648 | 71 | 226 | 1.0 | 2.0 | 0.00 | 0.00 | 0.00 | 21 | 1010.8 |
| 20260506204144 | 70 | 341 | 3.0 | 3.0 | 0.00 | 0.00 | 0.00 | 21 | 1011.0 |
| 20260506203643 | 70 | 314 | 3.0 | 3.0 | 0.00 | 0.00 | 0.00 | 22 | 1011.0 |
| 20260506203139 | 69 | 282 | 3.0 | 5.0 | 0.00 | 0.00 | 0.00 | 22 | 1011.0 |
| 20260506202638 | 69 | 322 | 4.0 | 7.0 | 0.00 | 0.00 | 0.00 | 22 | 1011.1 |
| 20260506202133 | 69 | 248 | 4.0 | 5.0 | 0.00 | 0.00 | 0.00 | 21 | 1011.3 |
| 20260506201630 | 68 | 333 | 3.0 | 3.0 | 0.00 | 0.00 | 0.00 | 22 | 1011.3 |
| 20260506201127 | 68 | 12 | 5.0 | 7.0 | 0.00 | 0.00 | 0.00 | 23 | 1011.5 |
| 20260506200623 | 69 | 286 | 2.0 | 3.0 | 0.00 | 0.00 | 0.00 | 22 | 1011.5 |
| 20260506200120 | 68 | 1 | 4.0 | 6.0 | 0.00 | 0.00 | 0.00 | 22 | 1011.7 |
| 20260506195617 | 68 | 329 | 3.0 | 5.0 | 0.00 | 0.00 | 0.00 | 23 | 1011.9 |
| 20260506195113 | 66 | 3 | 4.0 | 5.0 | 0.00 | 0.00 | 0.00 | 24 | 1011.7 |
| 20260506194611 | 67 | 309 | 3.0 | 3.0 | 0.00 | 0.00 | 0.00 | 22 | 1011.9 |
| 20260506194107 | 66 | 288 | 5.0 | 6.0 | 0.00 | 0.00 | 0.00 | 24 | 1011.9 |
| 20260506193605 | 66 | 281 | 5.0 | 7.0 | 0.00 | 0.00 | 0.00 | 24 | 1012.0 |
| 20260506193102 | 64 | 239 | 5.0 | 8.0 | 0.00 | 0.00 | 0.00 | 26 | 1011.9 |
| 20260506192559 | 63 | 252 | 5.0 | 7.0 | 0.00 | 0.00 | 0.00 | 26 | 1012.2 |
| 20260506192055 | 66 | 224 | 12.0 | 14.0 | 0.00 | 0.00 | 0.00 | 25 | 1012.2 |
| 20260506191551 | 65 | 246 | 5.0 | 6.0 | 0.00 | 0.00 | 0.00 | 25 | 1012.2 |
| 20260506191047 | 65 | 274 | 2.0 | 3.0 | 0.00 | 0.00 | 0.00 | 24 | 1012.5 |
| 20260506190545 | 66 | 279 | 3.0 | 3.0 | 0.00 | 0.00 | 0.00 | 24 | 1012.6 |
| 20260506190042 | 64 | 1 | 2.0 | 3.0 | 0.00 | 0.00 | 0.00 | 26 | 1012.7 |
| 20260506185539 | 63 | 347 | 2.0 | 2.0 | 0.00 | 0.00 | 0.00 | 25 | 1012.8 |
| 20260506185035 | 62 | 194 | 4.0 | 6.0 | 0.00 | 0.00 | 0.00 | 26 | 1012.9 |
| 20260506184533 | 62 | 189 | 3.0 | 3.0 | 0.00 | 0.00 | 0.00 | 25 | 1012.9 |
| 20260506184030 | 63 | 324 | 5.0 | 6.0 | 0.00 | 0.00 | 0.00 | 24 | 1013.3 |
| 20260506183525 | 63 | 303 | 4.0 | 7.0 | 0.00 | 0.00 | 0.00 | 25 | 1013.1 |
| 20260506183023 | 62 | 255 | 5.0 | 6.0 | 0.00 | 0.00 | 0.00 | 25 | 1013.2 |
| 20260506182520 | 62 | 253 | 2.0 | 3.0 | 0.00 | 0.00 | 0.00 | 27 | 1013.2 |
| 20260506182017 | 60 | 225 | 1.0 | 1.0 | 0.00 | 0.00 | 0.00 | 26 | 1013.4 |
| 20260506181515 | 60 | 247 | 5.0 | 6.0 | 0.00 | 0.00 | 0.00 | 26 | 1013.3 |
| 20260506181012 | 59 | 235 | 4.0 | 6.0 | 0.00 | 0.00 | 0.00 | 27 | 1013.7 |
| 20260506180508 | 58 | 199 | 8.0 | 8.0 | 0.00 | 0.00 | 0.00 | 27 | 1013.8 |
| 20260506180006 | 59 | 225 | 4.0 | 5.0 | 0.00 | 0.00 | 0.00 | 28 | 1013.9 |
| 20260506175501 | 59 | 227 | 3.0 | 5.0 | 0.00 | 0.00 | 0.00 | 26 | 1014.1 |
| 20260506174958 | 57 | 252 | 2.0 | 5.0 | 0.00 | 0.00 | 0.00 | 27 | 1014.0 |
| 20260506174456 | 58 | 234 | 8.0 | 9.0 | 0.00 | 0.00 | 0.00 | 28 | 1014.1 |
| 20260506173952 | 58 | 230 | 5.0 | 6.0 | 0.00 | 0.00 | 0.00 | 25 | 1014.4 |
| 20260506173450 | 57 | 140 | 3.0 | 6.0 | 0.00 | 0.00 | 0.00 | 25 | 1014.3 |
| 20260506172946 | 57 | 196 | 11.0 | 14.0 | 0.00 | 0.00 | 0.00 | 25 | 1014.4 |
| 20260506172444 | 56 | 204 | 7.0 | 9.0 | 0.00 | 0.00 | 0.00 | 24 | 1014.6 |
| 20260506171940 | 56 | 233 | 5.0 | 6.0 | 0.00 | 0.00 | 0.00 | 23 | 1014.5 |
| 20260506171438 | 56 | 212 | 7.0 | 8.0 | 0.00 | 0.00 | 0.00 | 24 | 1014.8 |
| 20260506170935 | 56 | 268 | 2.0 | 3.0 | 0.00 | 0.00 | 0.00 | 24 | 1015.0 |
| 20260506170431 | 55 | 171 | 6.0 | 7.0 | 0.00 | 0.00 | 0.00 | 24 | 1015.1 |
| 20260506165924 | 55 | 220 | 3.0 | 5.0 | 0.00 | 0.00 | 0.00 | 24 | 1015.2 |
| 20260506165423 | 55 | 245 | 5.0 | 6.0 | 0.00 | 0.00 | 0.00 | 25 | 1015.3 |
| 20260506164918 | 54 | 231 | 4.0 | 5.0 | 0.00 | 0.00 | 0.00 | 25 | 1015.2 |
| 20260506164415 | 53 | 181 | 3.0 | 5.0 | 0.00 | 0.00 | 0.00 | 30 | 1015.3 |
| 20260506163914 | 52 | 225 | 5.0 | 7.0 | 0.00 | 0.00 | 0.00 | 31 | 1015.4 |
| 20260506163407 | 52 | 205 | 5.0 | 6.0 | 0.00 | 0.00 | 0.00 | 30 | 1015.5 |
| 20260506162902 | 51 | 201 | 7.0 | 8.0 | 0.00 | 0.00 | 0.00 | 32 | 1015.7 |
| 20260506162400 | 51 | 220 | 6.0 | 9.0 | 0.00 | 0.00 | 0.00 | 33 | 1015.6 |
| 20260506161852 | 50 | 218 | 8.0 | 9.0 | 0.00 | 0.00 | 0.00 | 36 | 1015.9 |
| 20260506161349 | 50 | 197 | 6.0 | 7.0 | 0.00 | 0.00 | 0.00 | 36 | 1015.6 |
| 20260506160842 | 50 | 229 | 10.0 | 11.0 | 0.00 | 0.00 | 0.00 | 37 | 1015.9 |
| 20260506160338 | 49 | 206 | 8.0 | 9.0 | 0.00 | 0.00 | 0.00 | 40 | 1016.2 |
| 20260506155837 | 49 | 194 | 6.0 | 7.0 | 0.00 | 0.00 | 0.00 | 41 | 1016.1 |
| 20260506155333 | 48 | 204 | 8.0 | 10.0 | 0.00 | 0.00 | 0.00 | 42 | 1016.1 |
| 20260506153445 | 46 | 187 | 9.0 | 10.0 | 0.00 | 0.00 | 0.00 | 46 | 1016.5 |
| 20260506152943 | 46 | 217 | 8.0 | 8.0 | 0.00 | 0.00 | 0.00 | 47 | 1016.7 |
| 20260506152439 | 46 | 196 | 9.0 | 9.0 | 0.00 | 0.00 | 0.00 | 47 | 1016.8 |
| 20260506151938 | 45 | 226 | 12.0 | 14.0 | 0.00 | 0.00 | 0.00 | 49 | 1016.7 |
| 20260506151435 | 44 | 212 | 12.0 | 14.0 | 0.00 | 0.00 | 0.00 | 50 | 1016.7 |
| 20260506150932 | 44 | 219 | 12.0 | 14.0 | 0.00 | 0.00 | 0.00 | 51 | 1016.8 |
| 20260506150428 | 43 | 226 | 11.0 | 11.0 | 0.00 | 0.00 | 0.00 | 53 | 1016.8 |
| 20260506145925 | 42 | 213 | 7.0 | 9.0 | 0.00 | 0.00 | 0.00 | 54 | 1016.9 |
| 20260506145421 | 41 | 222 | 7.0 | 8.0 | 0.00 | 0.00 | 0.00 | 56 | 1017.2 |
| 20260506144919 | 41 | 196 | 9.0 | 10.0 | 0.00 | 0.00 | 0.00 | 57 | 1017.3 |
| 20260506144415 | 40 | 222 | 7.0 | 8.0 | 0.00 | 0.00 | 0.00 | 59 | 1017.3 |
| 20260506143914 | 40 | 205 | 7.0 | 8.0 | 0.00 | 0.00 | 0.00 | 59 | 1017.4 |
| 20260506143410 | 39 | 212 | 6.0 | 7.0 | 0.00 | 0.00 | 0.00 | 60 | 1017.5 |
| 20260506142909 | 39 | 208 | 6.0 | 7.0 | 0.00 | 0.00 | 0.00 | 61 | 1017.4 |
| 20260506142407 | 38 | 205 | 7.0 | 7.0 | 0.00 | 0.00 | 0.00 | 61 | 1017.5 |
| 20260506141904 | 37 | 222 | 6.0 | 7.0 | 0.00 | 0.00 | 0.00 | 62 | 1017.7 |
| 20260506141402 | 36 | 198 | 5.0 | 6.0 | 0.00 | 0.00 | 0.00 | 63 | 1017.7 |
| 20260506140900 | 35 | 192 | 3.0 | 3.0 | 0.00 | 0.00 | 0.00 | 65 | 1017.8 |
| 20260506140356 | 34 | 185 | 3.0 | 5.0 | 0.00 | 0.00 | 0.00 | 66 | 1017.8 |
| 20260506135854 | 32 | 179 | 2.0 | 2.0 | 0.00 | 0.00 | 0.00 | 68 | 1017.8 |
| 20260506135351 | 31 | 189 | 3.0 | 3.0 | 0.00 | 0.00 | 0.00 | 69 | 1017.7 |
| 20260506134847 | 30 | 173 | 3.0 | 3.0 | 0.00 | 0.00 | 0.00 | 69 | 1017.7 |
| 20260506134343 | 29 | 167 | 1.0 | 2.0 | 0.00 | 0.00 | 0.00 | 70 | 1017.9 |
| 20260506133840 | 27 | 170 | 2.0 | 2.0 | 0.00 | 0.00 | 0.00 | 72 | 1017.8 |
| 20260506133337 | 27 | 171 | 1.0 | 1.0 | 0.00 | 0.00 | 0.00 | 72 | 1017.7 |
| 20260506132833 | 26 | 171 | 1.0 | 2.0 | 0.00 | 0.00 | 0.00 | 73 | 1018.0 |
| 20260506132331 | 25 | 171 | 0.0 | 0.0 | 0.00 | 0.00 | 0.00 | 74 | 1017.9 |
| 20260506131829 | 24 | 170 | 1.0 | 1.0 | 0.00 | 0.00 | 0.00 | 75 | 1018.0 |
| 20260506131325 | 24 | 169 | 2.0 | 2.0 | 0.00 | 0.00 | 0.00 | 76 | 1018.0 |
| 20260506130822 | 23 | 165 | 3.0 | 3.0 | 0.00 | 0.00 | 0.00 | 77 | 1017.8 |
| 20260506130318 | 23 | 165 | 2.0 | 2.0 | 0.00 | 0.00 | 0.00 | 77 | 1018.0 |
| 20260506125817 | 22 | 165 | 1.0 | 1.0 | 0.00 | 0.00 | 0.00 | 77 | 1018.2 |
| 20260506125315 | 22 | 164 | 4.0 | 5.0 | 0.00 | 0.00 | 0.00 | 77 | 1018.3 |
| 20260506124813 | 23 | 165 | 2.0 | 2.0 | 0.00 | 0.00 | 0.00 | 77 | 1018.3 |
| 20260506124309 | 23 | 160 | 0.0 | 0.0 | 0.00 | 0.00 | 0.00 | 74 | 1018.3 |
| 20260506123807 | 22 | 159 | 0.0 | 0.0 | 0.00 | 0.00 | 0.00 | 77 | 1018.2 |
| 20260506123306 | 21 | 159 | 0.0 | 0.0 | 0.00 | 0.00 | 0.00 | 79 | 1018.2 |
| 20260506122802 | 21 | 159 | 0.0 | 0.0 | 0.00 | 0.00 | 0.00 | 77 | 1018.2 |
| 20260506122259 | 21 | 159 | 0.0 | 0.0 | 0.00 | 0.00 | 0.00 | 78 | 1018.2 |
| 20260506121757 | 20 | 159 | 0.0 | 0.0 | 0.00 | 0.00 | 0.00 | 79 | 1018.3 |
| 20260506121254 | 20 | 159 | 1.0 | 1.0 | 0.00 | 0.00 | 0.00 | 80 | 1018.3 |
| 20260506120751 | 20 | 159 | 1.0 | 1.0 | 0.00 | 0.00 | 0.00 | 80 | 1018.3 |
| 20260506120249 | 20 | 159 | 1.0 | 1.0 | 0.00 | 0.00 | 0.00 | 78 | 1018.3 |
| 20260506115746 | 21 | 158 | 2.0 | 2.0 | 0.00 | 0.00 | 0.00 | 78 | 1018.4 |
| 20260506115244 | 21 | 156 | 0.0 | 0.0 | 0.00 | 0.00 | 0.00 | 78 | 1018.5 |
| 20260506114742 | 20 | 156 | 1.0 | 1.0 | 0.00 | 0.00 | 0.00 | 77 | 1018.6 |
| 20260506114239 | 21 | 156 | 1.0 | 1.0 | 0.00 | 0.00 | 0.00 | 76 | 1018.4 |
| 20260506113738 | 21 | 156 | 1.0 | 2.0 | 0.00 | 0.00 | 0.00 | 76 | 1018.5 |
| 20260506113235 | 22 | 155 | 1.0 | 1.0 | 0.00 | 0.00 | 0.00 | 77 | 1018.7 |
| 20260506112731 | 22 | 155 | 1.0 | 1.0 | 0.00 | 0.00 | 0.00 | 76 | 1018.6 |
| 20260506112228 | 23 | 155 | 2.0 | 2.0 | 0.00 | 0.00 | 0.00 | 77 | 1018.4 |
| 20260506111726 | 23 | 155 | 1.0 | 1.0 | 0.00 | 0.00 | 0.00 | 75 | 1018.8 |
| 20260506111224 | 24 | 155 | 1.0 | 1.0 | 0.00 | 0.00 | 0.00 | 76 | 1018.8 |
| 20260506110721 | 24 | 155 | 2.0 | 2.0 | 0.00 | 0.00 | 0.00 | 76 | 1019.0 |
| 20260506110218 | 24 | 153 | 3.0 | 3.0 | 0.00 | 0.00 | 0.00 | 75 | 1019.0 |
| 20260506105715 | 24 | 153 | 1.0 | 1.0 | 0.00 | 0.00 | 0.00 | 74 | 1018.8 |
| 20260506105212 | 24 | 151 | 2.0 | 2.0 | 0.00 | 0.00 | 0.00 | 74 | 1018.9 |
| 20260506104710 | 23 | 151 | 0.0 | 0.0 | 0.00 | 0.00 | 0.00 | 75 | 1019.0 |
| 20260506104207 | 24 | 151 | 0.0 | 0.0 | 0.00 | 0.00 | 0.00 | 72 | 1019.1 |
| 20260506103704 | 23 | 151 | 1.0 | 1.0 | 0.00 | 0.00 | 0.00 | 73 | 1018.9 |
| 20260506103201 | 23 | 151 | 0.0 | 1.0 | 0.00 | 0.00 | 0.00 | 73 | 1019.2 |
| 20260506102659 | 23 | 151 | 0.0 | 0.0 | 0.00 | 0.00 | 0.00 | 70 | 1019.2 |
| 20260506102157 | 23 | 151 | 2.0 | 2.0 | 0.00 | 0.00 | 0.00 | 69 | 1019.1 |
| 20260506101653 | 24 | 151 | 2.0 | 2.0 | 0.00 | 0.00 | 0.00 | 66 | 1019.1 |
| 20260506101150 | 24 | 151 | 2.0 | 2.0 | 0.00 | 0.00 | 0.00 | 66 | 1019.2 |
| 20260506100648 | 23 | 152 | 1.0 | 2.0 | 0.00 | 0.00 | 0.00 | 67 | 1019.4 |
| 20260506100146 | 23 | 151 | 0.0 | 0.0 | 0.00 | 0.00 | 0.00 | 66 | 1019.4 |
| 20260506095644 | 22 | 151 | 0.0 | 0.0 | 0.00 | 0.00 | 0.00 | 64 | 1019.5 |
| 20260506095140 | 22 | 151 | 0.0 | 0.0 | 0.00 | 0.00 | 0.00 | 65 | 1019.4 |
| 20260506094638 | 22 | 151 | 0.0 | 0.0 | 0.00 | 0.00 | 0.00 | 63 | 1019.4 |
| 20260506094136 | 22 | 151 | 0.0 | 0.0 | 0.00 | 0.00 | 0.00 | 64 | 1019.6 |